Laichingen Airport

Jump to: basic info | weather | comments

Related pages: nearby airports | nearby navaids | notams | map

Basic information (top)

Codes: EDPJ
Location: lon 48.496944, lat 9.640278, elev 2,434 ft / 742 m msl
Status: small_airport

Weather (top)

Current conditions for Laupheim Airport 20nm (37km) SSE (rec'd 2014/09/22 05:20Z):

ETHL 220520Z 26005KT 6000 FEW017 SCT045 09/08 Q1020 WHT BLU TEMPO WHT

Airport forecast for Laupheim Airport 20nm (37km) SSE (rec'd 2014/07/15 08:33Z):

TAF TAF ETHL 150718Z 1508/1520 30006KT 9999 NSW FEW030 SCT300

Latest comments (top)

EDPJ: See also the homepage of the club 'FSV ... [read]

More... (top)

See also NOTAMs and nearby airports and navaids, or visit the Laichingen Airport page at the main OurAirports website..